User: anonymous   Login
Location: Montr�al
(45.5000°N, 73.5830°W)
Time: 10:56:00
(UTC-04:00)
Language:

Cosmos 1470 Rocket - Orbit

View from above orbital plane
View from above orbital plane
View from above satellite
View from above satellite

Ground track
Ground track

The orbit data is extracted from the following two-line orbital elements,

1 14148U 83061B   16127.06825692  .00000159  00000-0  16495-4 0  9995
2 14148  82.5167 290.8707 0020422 232.0636 261.6973 14.83158612774498
Epoch (UTC): 06 May 2016 01:38:17
Eccentricity: 0.0020422
inclination: 82.5167°
perigee height: 605 km
apogee height: 633 km
right ascension of ascending node: 290.8707°
argument of perigee: 232.0636°
revolutions per day: 14.83158612
mean anomaly at epoch: 261.6973°
orbit number at epoch: 77449

The dashed part of the orbit path shows where the satellite is in the earth's shadow,  

DLR